Weather History for KW22 - March, 2012

Change the Weather History Date:

Wednesday, March 7, 2012

  Actual Average (KEKN) Record (KEKN)
Temperature  
Mean Temperature 54 °F 37 °F  
Max Temperature 66 °F 49 °F 76 °F (2009)
Min Temperature 41 °F 25 °F 3 °F (2015)
Degree Days  
Heating Degree Days 12 28  
Month to date heating degree days 202  
Since 1 July heating degree days 4523  
Cooling Degree Days 0 0  
Month to date cooling degree days 0  
Year to date cooling degree days 0  
Growing Degree Days 4 (Base 50)    
Moisture  
Dew Point 25 °F    
Average Humidity 32    
Maximum Humidity 48    
Minimum Humidity 24    
Precipitation  
Precipitation 0.00 in 0.13 in 1.07 in (1951)
Month to date precipitation 0.84  
Year to date precipitation 7.17  
Snow  
Snow 0.00 in - - ()
Month to date snowfall  
Since 1 September snowfall  
Snow Depth -    
Sea Level Pressure  
Sea Level Pressure 30.38 in    
Wind  
Wind Speed 5 mph (SSW)    
Max Wind Speed 20 mph    
Max Gust Speed 29 mph    
Visibility 10 miles    
Events      
T = Trace of Precipitation, MM = Missing Value Source: NWS Daily Summary

Daily Weather History Graph

Daily Weather History Graph

Search for Another Location

Airport or City:

Trip Planner

Search our weather history database for the weather conditions in past years. The results will help you decide how hot, cold, wet, or windy it might be!

Date:

Astronomy

Mar. 07, 2012 Rise Set
Actual Time 6:43 AM EST 6:20 PM EST
Civil Twilight 6:17 AM EST 6:47 PM EST
Nautical Twilight 5:46 AM EST 7:18 PM EST
Astronomical Twilight 5:15 AM EST 7:49 PM EST
Moon 5:54 PM EST (3/7) 5:53 AM EST (3/7)
Length of Visible Light 12h 29m
Length of Day
11h 36m
Waxing Gibbous, 99% of the Moon is Illuminated
Mar 7
Waxing Gibbous
Mar 8
Full
Mar 14
Last Quarter
Mar 22
New
Mar 30
First Quarter

Hourly Weather History & Observations

Time (EST) Temp. Dew Point Humidity Pressure Visibility Wind Dir Wind Speed Gust Speed Precip Events Conditions
12:15 AM 48.2 °F 19.4 °F 32% 30.39 in 10.0 mi Calm Calm - N/A   Clear
12:35 AM 48.2 °F 17.6 °F 30% 30.39 in 10.0 mi Calm Calm - N/A   Clear
12:55 AM 48.2 °F 17.6 °F 30% 30.39 in 10.0 mi Calm Calm - N/A   Clear
1:15 AM 46.4 °F 17.6 °F 32% 30.39 in 10.0 mi Calm Calm - N/A   Clear
1:35 AM 46.4 °F 17.6 °F 32% 30.39 in 10.0 mi Calm Calm - N/A   Clear
1:55 AM 48.2 °F 14.0 °F 25% 30.39 in 10.0 mi Calm Calm - N/A   Clear
2:15 AM 46.4 °F 15.8 °F 29% 30.38 in 10.0 mi Calm Calm - N/A   Clear
2:35 AM 46.4 °F 15.8 °F 29% 30.38 in 10.0 mi Calm Calm - N/A   Clear
2:55 AM 46.4 °F 14.0 °F 27% 30.38 in 10.0 mi Calm Calm - N/A   Clear
3:15 AM 46.4 °F 14.0 °F 27% 30.38 in 10.0 mi Calm Calm - N/A   Clear
3:35 AM 46.4 °F 14.0 °F 27% 30.39 in 10.0 mi Calm Calm - N/A   Clear
3:55 AM 42.8 °F 15.8 °F 34% 30.39 in 10.0 mi Calm Calm - N/A   Clear
4:15 AM 42.8 °F 15.8 °F 34% 30.40 in 10.0 mi Calm Calm - N/A   Clear
4:35 AM 42.8 °F 15.8 °F 34% 30.41 in 10.0 mi Calm Calm - N/A   Clear
4:55 AM 42.8 °F 14.0 °F 31% 30.41 in 10.0 mi Calm Calm - N/A   Clear
5:15 AM 44.6 °F 14.0 °F 29% 30.42 in 10.0 mi Calm Calm - N/A   Clear
5:35 AM 44.6 °F 14.0 °F 29% 30.43 in 10.0 mi Calm Calm - N/A   Clear
5:55 AM 44.6 °F 14.0 °F 29% 30.43 in 10.0 mi Calm Calm - N/A   Clear
6:15 AM 44.6 °F 14.0 °F 29% 30.44 in 10.0 mi Calm Calm - N/A   Clear
6:35 AM 44.6 °F 14.0 °F 29% 30.44 in 10.0 mi Calm Calm - N/A   Clear
7:15 AM 42.8 °F 14.0 °F 31% 30.45 in 10.0 mi Calm Calm - N/A   Clear
7:35 AM 41.0 °F 15.8 °F 36% 30.46 in 10.0 mi Calm Calm - N/A   Clear
7:55 AM 44.6 °F 19.4 °F 37% 30.47 in 10.0 mi Calm Calm - N/A   Clear
8:15 AM 46.4 °F 17.6 °F 32% 30.47 in 10.0 mi Calm Calm - N/A   Clear
8:35 AM 46.4 °F 21.2 °F 37% 30.48 in 10.0 mi Calm Calm - N/A   Clear
8:55 AM 50.0 °F 19.4 °F 30% 30.48 in 10.0 mi Calm Calm - N/A   Clear
9:15 AM 51.8 °F 23.0 °F 33% 30.48 in 10.0 mi SSW 5.8 mph - N/A   Clear
9:35 AM 55.4 °F 23.0 °F 29% 30.48 in 10.0 mi SSW 10.4 mph 16.1 mph N/A   Clear
9:55 AM 57.2 °F 23.0 °F 27% 30.47 in 10.0 mi SSW 15.0 mph 23.0 mph N/A   Clear
10:15 AM 57.2 °F 26.6 °F 31% 30.47 in 10.0 mi SSW 10.4 mph 27.6 mph N/A   Clear
10:35 AM 60.8 °F 28.4 °F 29% 30.47 in 10.0 mi SSW 18.4 mph 25.3 mph N/A   Clear
10:55 AM 60.8 °F 28.4 °F 29% 30.47 in 10.0 mi SSW 11.5 mph 18.4 mph N/A   Clear
11:15 AM 60.8 °F 30.2 °F 31% 30.47 in 10.0 mi SW 12.7 mph 24.2 mph N/A   Clear
11:35 AM 60.8 °F 32.0 °F 34% 30.46 in 10.0 mi WSW 13.8 mph 24.2 mph N/A   Clear
11:55 AM 62.6 °F 32.0 °F 32% 30.45 in 10.0 mi SW 16.1 mph 21.9 mph N/A   Clear
12:15 PM 62.6 °F 32.0 °F 32% 30.43 in 10.0 mi SSW 17.3 mph 24.2 mph N/A   Clear
12:35 PM 62.6 °F 32.0 °F 32% 30.42 in 10.0 mi SW 16.1 mph 23.0 mph N/A   Clear
12:55 PM 62.6 °F 32.0 °F 32% 30.41 in 10.0 mi WSW 17.3 mph 26.5 mph N/A   Clear
1:15 PM 64.4 °F 32.0 °F 30% 30.39 in 10.0 mi South 15.0 mph 21.9 mph N/A   Clear
1:35 PM 62.6 °F 32.0 °F 32% 30.38 in 10.0 mi WSW 9.2 mph 19.6 mph N/A   Clear
1:55 PM 64.4 °F 32.0 °F 30% 30.36 in 10.0 mi South 12.7 mph - N/A   Clear
2:15 PM 64.4 °F 32.0 °F 30% 30.34 in 10.0 mi SW 15.0 mph 23.0 mph N/A   Clear
2:35 PM 64.4 °F 32.0 °F 30% 30.34 in 10.0 mi WSW 12.7 mph - N/A   Clear
2:55 PM 64.4 °F 32.0 °F 30% 30.33 in 10.0 mi WSW 16.1 mph - N/A   Clear
3:15 PM 66.2 °F 32.0 °F 28% 30.32 in 10.0 mi SW 15.0 mph 18.4 mph N/A   Clear
3:35 PM 66.2 °F 32.0 °F 28% 30.31 in 10.0 mi SW 13.8 mph - N/A   Clear
3:55 PM 66.2 °F 32.0 °F 28% 30.31 in 10.0 mi SW 12.7 mph 18.4 mph N/A   Clear
4:15 PM 66.2 °F 28.4 °F 24% 30.30 in 10.0 mi SW 18.4 mph 24.2 mph N/A   Clear
4:35 PM 66.2 °F 30.2 °F 26% 30.30 in 10.0 mi SSW 10.4 mph 19.6 mph N/A   Clear
4:55 PM 64.4 °F 30.2 °F 28% 30.29 in 10.0 mi South 19.6 mph 28.8 mph N/A   Clear
5:15 PM 64.4 °F 30.2 °F 28% 30.29 in 10.0 mi SSW 11.5 mph 26.5 mph N/A   Clear
5:35 PM 64.4 °F 30.2 °F 28% 30.29 in 10.0 mi SSW 11.5 mph - N/A   Clear
5:55 PM 62.6 °F 30.2 °F 30% 30.29 in 10.0 mi South 11.5 mph - N/A   Clear
6:15 PM 62.6 °F 32.0 °F 32% 30.29 in 10.0 mi South 9.2 mph - N/A   Clear
6:35 PM 60.8 °F 32.0 °F 34% 30.28 in 10.0 mi South 6.9 mph - N/A   Clear
6:55 PM 60.8 °F 32.0 °F 34% 30.27 in 10.0 mi South 5.8 mph - N/A   Clear
7:15 PM 59.0 °F 33.8 °F 39% 30.26 in 10.0 mi South 15.0 mph 20.7 mph N/A   Clear
7:35 PM 59.0 °F 35.6 °F 42% 30.27 in 10.0 mi South 11.5 mph - N/A   Clear
7:55 PM 59.0 °F 35.6 °F 42% 30.27 in 10.0 mi South 15.0 mph 19.6 mph N/A   Clear
8:15 PM 59.0 °F 35.6 °F 42% 30.27 in 10.0 mi South 18.4 mph 25.3 mph N/A   Clear
8:35 PM 59.0 °F 35.6 °F 42% 30.27 in 10.0 mi South 18.4 mph 21.9 mph N/A   Clear
8:55 PM 57.2 °F 35.6 °F 44% 30.27 in 10.0 mi South 11.5 mph 18.4 mph N/A   Clear
9:15 PM 57.2 °F 37.4 °F 48% 30.27 in 10.0 mi South 11.5 mph - N/A   Clear
9:35 PM 57.2 °F 37.4 °F 48% 30.28 in 10.0 mi South 12.7 mph - N/A   Clear
9:55 PM 55.4 °F 37.4 °F 51% 30.28 in 10.0 mi South 9.2 mph - N/A   Clear
10:15 PM 55.4 °F 37.4 °F 51% 30.29 in 10.0 mi SSW 11.5 mph 17.3 mph N/A   Clear
10:35 PM 55.4 °F 35.6 °F 47% 30.29 in 10.0 mi SSW 11.5 mph 20.7 mph N/A   Clear
10:55 PM 55.4 °F 35.6 °F 47% 30.29 in 10.0 mi SSW 11.5 mph 17.3 mph N/A   Clear
11:15 PM 55.4 °F 35.6 °F 47% 30.29 in 10.0 mi South 13.8 mph 20.7 mph N/A   Clear
11:35 PM 55.4 °F 35.6 °F 47% 30.29 in 10.0 mi South 12.7 mph 20.7 mph N/A   Clear
11:55 PM 55.4 °F 37.4 °F 51% 30.29 in 10.0 mi South 12.7 mph 16.1 mph N/A   Clear